Location: Fort Wayne
(41.1310°N, 85.1290°W)
Time: 23:29:19
(UTC-04:00)

COSMOS 2428 - Visible Passes

Search period start: 25 May 2015 00:00
Search period end: 04 June 2015 00:00
Orbit: 844 x 857 km, 71.0° (Epoch: 25 May)

Date Brightness Start Highest point End Pass type
(mag) Time Alt. Az. Time Alt. Az. Time Alt. Az.
25 May 5.3 01:25:54 10° WNW 01:28:45 13° NW 01:31:22 10° NNW visible
25 May 4.3 21:44:41 10° SE 21:47:23 14° E 21:50:25 10° ENE visible
25 May 2.8 23:26:12 15° SSW 23:31:01 77° WNW 23:36:45 10° NNE visible
26 May 5.4 01:13:31 10° WNW 01:16:23 13° NW 01:19:00 10° NNW visible
26 May 4.3 21:32:20 10° SE 21:35:02 14° E 21:38:03 10° ENE visible
26 May 2.8 23:12:58 10° SSW 23:18:39 77° WNW 23:24:23 10° NNE visible
27 May 5.4 01:01:08 10° WNW 01:04:01 14° NW 01:06:39 10° NNW visible
27 May 2.8 23:00:36 10° SSW 23:06:16 78° WNW 23:12:01 10° NNE visible
28 May 5.4 00:48:45 10° WNW 00:51:38 14° NW 00:54:17 10° NNW visible
28 May 2.8 22:48:14 10° SSW 22:53:54 78° WNW 22:59:39 10° NNE visible
29 May 5.5 00:36:22 10° WNW 00:39:16 14° NW 00:41:56 10° NNW visible
29 May 2.9 22:35:52 10° SSW 22:41:32 78° WNW 22:47:17 10° NNE visible
30 May 5.5 00:23:59 10° WNW 00:26:53 14° NW 00:29:34 10° NNW visible
30 May 2.9 22:23:29 10° SSW 22:29:10 78° WNW 22:34:55 10° NNE visible
31 May 5.6 00:11:35 10° WNW 00:14:31 14° NW 00:17:13 10° NNW visible
31 May 2.9 22:11:06 10° SSW 22:16:48 79° WNW 22:22:33 10° NNE visible
31 May 5.6 23:59:13 10° WNW 00:02:08 14° NW 00:04:51 10° NNW visible
01 Jun 2.9 21:58:44 10° SSW 22:04:26 79° WNW 22:10:11 10° NNE visible
01 Jun 5.7 23:46:49 10° WNW 23:49:46 14° NW 23:52:29 10° NNW visible
02 Jun 2.9 21:46:22 10° SSW 21:52:03 79° WNW 21:57:49 10° NNE visible
02 Jun 5.7 23:34:26 10° WNW 23:37:23 14° NW 23:40:08 10° NNW visible
03 Jun 3.0 21:33:59 10° SSW 21:39:41 79° WNW 21:45:26 10° NNE visible
03 Jun 5.8 23:22:02 10° WNW 23:25:01 14° NW 23:27:46 10° NNW visible
